| time (UTC) | temp C | wind direction | speed KPH | gust KPH | rain 1hr cm | rain 24hr cm | rain mn cm | humidity % | barometer mb |
| 20260905150043 | 23 | 0 | 0.0 | 11.3 | 0.00 | 0.41 | 0.00 | 86 | 1016.4 |
| 20260905144543 | 22 | 60 | 6.4 | 16.1 | 0.00 | 0.66 | 0.00 | 86 | 1016.3 |
| 20260905143048 | 22 | 39 | 4.8 | 12.9 | 0.00 | 0.66 | 0.00 | 86 | 1016.0 |
| 20260905141546 | 21 | 41 | 4.8 | 14.5 | 0.00 | 0.66 | 0.00 | 85 | 1015.9 |
| 20260905140046 | 21 | 354 | 4.8 | 12.9 | 0.00 | 0.66 | 0.00 | 84 | 1015.9 |
| 20260905134558 | 21 | 30 | 6.4 | 16.1 | 0.00 | 0.69 | 0.00 | 84 | 1015.9 |
| 20260905133054 | 21 | 8 | 3.2 | 12.9 | 0.00 | 0.69 | 0.00 | 83 | 1016.0 |
| 20260905131547 | 21 | 44 | 1.6 | 8.0 | 0.00 | 0.69 | 0.00 | 82 | 1016.3 |
| 20260905130044 | 21 | 81 | 0.0 | 11.3 | 0.00 | 0.69 | 0.00 | 82 | 1015.6 |
| 20260905124549 | 21 | 24 | 4.8 | 12.9 | 0.00 | 0.69 | 0.00 | 83 | 1015.6 |
| 20260905123048 | 21 | 70 | 3.2 | 8.0 | 0.00 | 0.69 | 0.00 | 83 | 1015.4 |
| 20260905121542 | 21 | 72 | 1.6 | 8.0 | 0.00 | 0.69 | 0.00 | 83 | 1015.1 |
| 20260905120050 | 20 | 30 | 1.6 | 6.4 | 0.00 | 0.69 | 0.00 | 83 | 1015.1 |
| 20260905114545 | 20 | 45 | 3.2 | 12.9 | 0.00 | 0.69 | 0.00 | 83 | 1014.9 |
| 20260905113042 | 20 | 28 | 3.2 | 12.9 | 0.00 | 0.69 | 0.00 | 83 | 1014.8 |
| 20260905111548 | 20 | 53 | 6.4 | 17.7 | 0.00 | 0.69 | 0.00 | 84 | 1014.7 |
| 20260905110104 | 20 | 58 | 8.0 | 14.5 | 0.00 | 0.69 | 0.00 | 84 | 1014.4 |
| 20260905104556 | 21 | 34 | 4.8 | 12.9 | 0.00 | 0.69 | 0.00 | 84 | 1014.3 |
| 20260905103051 | 21 | 72 | 3.2 | 11.3 | 0.00 | 0.69 | 0.00 | 84 | 1014.5 |
| 20260905101551 | 21 | 64 | 4.8 | 12.9 | 0.00 | 0.69 | 0.00 | 84 | 1014.3 |
| 20260905100045 | 21 | 7 | 4.8 | 12.9 | 0.00 | 0.69 | 0.00 | 84 | 1014.3 |
| 20260905094542 | 21 | 58 | 0.0 | 4.8 | 0.00 | 0.71 | 0.00 | 84 | 1014.0 |
| 20260905093044 | 21 | 0 | 0.0 | 3.2 | 0.00 | 0.71 | 0.00 | 84 | 1014.1 |
| 20260905091601 | 21 | 0 | 0.0 | 4.8 | 0.00 | 0.71 | 0.00 | 84 | 1014.0 |
| 20260905090045 | 21 | 32 | 1.6 | 8.0 | 0.00 | 0.71 | 0.00 | 84 | 1014.1 |
| 20260905084542 | 21 | 30 | 3.2 | 8.0 | 0.00 | 0.74 | 0.00 | 84 | 1014.0 |
| 20260905083049 | 21 | 0 | 1.6 | 4.8 | 0.00 | 0.74 | 0.00 | 84 | 1014.0 |
| 20260905081600 | 21 | 27 | 0.0 | 4.8 | 0.00 | 0.74 | 0.00 | 85 | 1013.9 |
| 20260905080041 | 21 | 0 | 0.0 | 8.0 | 0.00 | 0.74 | 0.00 | 85 | 1013.9 |
| 20260905074542 | 21 | 0 | 1.6 | 3.2 | 0.00 | 0.76 | 0.00 | 85 | 1014.0 |
| 20260905073045 | 21 | 0 | 0.0 | 1.6 | 0.00 | 0.76 | 0.00 | 85 | 1013.9 |
| 20260905071543 | 21 | 0 | 0.0 | 4.8 | 0.00 | 0.76 | 0.00 | 86 | 1013.9 |
| 20260905070050 | 21 | 0 | 0.0 | 0.0 | 0.00 | 0.76 | 0.00 | 86 | 1013.8 |
| 20260905064550 | 21 | 0 | 0.0 | 0.0 | 0.00 | 0.76 | 0.00 | 86 | 1013.9 |
| 20260905063052 | 21 | 0 | 0.0 | 0.0 | 0.00 | 0.76 | 0.00 | 86 | 1013.9 |
| 20260905061545 | 21 | 0 | 0.0 | 0.0 | 0.00 | 0.76 | 0.00 | 86 | 1014.0 |
| 20260905060040 | 21 | 0 | 0.0 | 4.8 | 0.00 | 0.76 | 0.00 | 86 | 1014.2 |
| 20260905054551 | 21 | 0 | 1.6 | 4.8 | 0.00 | 0.76 | 0.00 | 86 | 1014.1 |
| 20260905053044 | 21 | 0 | 0.0 | 0.0 | 0.00 | 0.76 | 0.00 | 86 | 1013.7 |
| 20260905051544 | 21 | 0 | 0.0 | 0.0 | 0.00 | 0.76 | 0.00 | 87 | 1014.0 |
| 20260905050042 | 22 | 0 | 0.0 | 0.0 | 0.00 | 0.76 | 0.00 | 87 | 1014.0 |
| 20260905044540 | 22 | 0 | 0.0 | 0.0 | 0.00 | 0.76 | 0.76 | 87 | 1014.2 |
| 20260905043044 | 22 | 0 | 0.0 | 1.6 | 0.00 | 0.76 | 0.76 | 86 | 1014.6 |
| 20260905041543 | 22 | 0 | 0.0 | 3.2 | 0.00 | 0.76 | 0.76 | 86 | 1014.5 |
| 20260905040055 | 21 | 0 | 0.0 | 3.2 | 0.00 | 0.76 | 0.76 | 86 | 1014.3 |
| 20260905034545 | 21 | 0 | 0.0 | 0.0 | 0.00 | 0.76 | 0.76 | 87 | 1014.0 |
| 20260905033050 | 21 | 0 | 0.0 | 0.0 | 0.00 | 0.76 | 0.76 | 87 | 1014.2 |
| 20260905031551 | 21 | 0 | 0.0 | 0.0 | 0.00 | 0.76 | 0.76 | 87 | 1014.2 |
| 20260905030048 | 22 | 0 | 0.0 | 0.0 | 0.00 | 0.76 | 0.76 | 87 | 1014.6 |
| 20260905024542 | 22 | 0 | 0.0 | 0.0 | 0.00 | 0.76 | 0.76 | 87 | 1014.5 |
| 20260905023043 | 22 | 0 | 0.0 | 1.6 | 0.00 | 0.76 | 0.76 | 87 | 1014.4 |
| 20260905021549 | 22 | 0 | 0.0 | 3.2 | 0.00 | 0.76 | 0.76 | 87 | 1014.4 |
| 20260905020040 | 22 | 0 | 0.0 | 4.8 | 0.00 | 0.76 | 0.76 | 87 | 1014.5 |
| 20260905014543 | 22 | 77 | 1.6 | 6.4 | 0.00 | 0.76 | 0.76 | 87 | 1014.5 |
| 20260905013047 | 22 | 75 | 3.2 | 4.8 | 0.00 | 0.76 | 0.76 | 87 | 1014.5 |
| 20260905011543 | 23 | 0 | 0.0 | 3.2 | 0.00 | 0.76 | 0.76 | 87 | 1014.4 |
| 20260905010045 | 23 | 75 | 1.6 | 3.2 | 0.00 | 0.76 | 0.76 | 87 | 1014.1 |
| 20260905004609 | 23 | 77 | 1.6 | 6.4 | 0.00 | 0.76 | 0.76 | 86 | 1013.7 |
| 20260905003049 | 23 | 74 | 1.6 | 4.8 | 0.00 | 0.76 | 0.76 | 84 | 1013.6 |
| 20260905001544 | 24 | 0 | 1.6 | 4.8 | 0.00 | 0.76 | 0.76 | 84 | 1013.6 |
| 20260905000043 | 24 | 76 | 1.6 | 3.2 | 0.00 | 0.76 | 0.76 | 83 | 1013.6 |
| 20260904234550 | 24 | 0 | 0.0 | 6.4 | 0.00 | 0.76 | 0.76 | 83 | 1013.5 |
| 20260904233045 | 25 | 69 | 3.2 | 9.7 | 0.00 | 0.76 | 0.76 | 82 | 1013.2 |
| 20260904231546 | 25 | 51 | 1.6 | 8.0 | 0.00 | 0.76 | 0.76 | 82 | 1013.1 |
| 20260904224541 | 25 | 51 | 1.6 | 8.0 | 0.00 | 0.76 | 0.76 | 80 | 1013.2 |
| 20260904223050 | 25 | 70 | 3.2 | 11.3 | 0.00 | 0.76 | 0.76 | 80 | 1013.2 |
| 20260904221543 | 25 | 82 | 6.4 | 11.3 | 0.00 | 0.76 | 0.76 | 79 | 1013.2 |
| 20260904220044 | 25 | 86 | 4.8 | 9.7 | 0.00 | 0.76 | 0.76 | 80 | 1013.2 |
| 20260904214548 | 25 | 33 | 6.4 | 11.3 | 0.00 | 0.76 | 0.76 | 79 | 1013.2 |
| 20260904213044 | 26 | 70 | 6.4 | 12.9 | 0.00 | 0.76 | 0.76 | 74 | 1013.0 |
| 20260904211549 | 30 | 80 | 4.8 | 9.7 | 0.00 | 0.76 | 0.76 | 65 | 1012.9 |
| 20260904210048 | 30 | 328 | 0.0 | 6.4 | 0.00 | 0.76 | 0.76 | 70 | 1012.8 |
| 20260904204543 | 29 | 238 | 6.4 | 19.3 | 0.00 | 0.76 | 0.76 | 71 | 1012.4 |
| 20260904203044 | 28 | 245 | 4.8 | 19.3 | 0.00 | 0.76 | 0.76 | 75 | 1012.2 |
| 20260904201547 | 28 | 213 | 6.4 | 20.9 | 0.00 | 0.76 | 0.76 | 75 | 1012.4 |
| 20260904200048 | 28 | 262 | 8.0 | 17.7 | 0.00 | 0.76 | 0.76 | 74 | 1012.5 |
| 20260904194544 | 28 | 252 | 6.4 | 22.5 | 0.00 | 0.76 | 0.76 | 76 | 1012.7 |
| 20260904193043 | 27 | 219 | 9.7 | 29.0 | 0.00 | 0.76 | 0.76 | 75 | 1012.9 |
| 20260904191543 | 26 | 239 | 9.7 | 19.3 | 0.00 | 0.76 | 0.76 | 77 | 1013.0 |
| 20260904190046 | 27 | 191 | 11.3 | 22.5 | 0.00 | 0.76 | 0.76 | 78 | 1013.0 |
| 20260904184544 | 26 | 237 | 6.4 | 19.3 | 0.00 | 0.76 | 0.76 | 81 | 1013.1 |
| 20260904183044 | 25 | 212 | 9.7 | 22.5 | 0.00 | 0.76 | 0.76 | 84 | 1013.4 |
| 20260904181543 | 23 | 263 | 4.8 | 17.7 | 0.00 | 0.76 | 0.76 | 86 | 1013.7 |
| 20260904180045 | 22 | 218 | 6.4 | 14.5 | 0.00 | 0.76 | 0.76 | 87 | 1013.7 |
| 20260904174542 | 22 | 192 | 6.4 | 17.7 | 0.00 | 1.17 | 0.76 | 87 | 1013.5 |
| 20260904173047 | 22 | 226 | 6.4 | 16.1 | 0.00 | 1.17 | 0.76 | 87 | 1013.5 |
| 20260904171544 | 21 | 197 | 6.4 | 17.7 | 0.00 | 1.17 | 0.76 | 87 | 1013.6 |
| 20260904170045 | 21 | 219 | 4.8 | 9.7 | 0.03 | 1.17 | 0.76 | 86 | 1013.6 |
| 20260904164550 | 20 | 208 | 4.8 | 11.3 | 0.05 | 1.42 | 0.76 | 86 | 1013.7 |
| 20260904163046 | 20 | 240 | 6.4 | 16.1 | 0.41 | 1.42 | 0.76 | 86 | 1014.1 |
| 20260904161545 | 20 | 203 | 4.8 | 16.1 | 0.41 | 1.42 | 0.76 | 86 | 1014.3 |
| 20260904160047 | 20 | 216 | 6.4 | 14.5 | 0.38 | 1.40 | 0.74 | 86 | 1015.0 |
| 20260904154549 | 20 | 226 | 9.7 | 19.3 | 0.36 | 1.47 | 0.71 | 86 | 1015.1 |
| 20260904153058 | 20 | 248 | 6.4 | 16.1 | 0.03 | 1.12 | 0.36 | 86 | 1016.7 |
| 20260904151543 | 20 | 0 | 0.0 | 9.7 | 0.08 | 1.12 | 0.36 | 85 | 1016.3 |